Main page
METAR-TAF:

METAR-TAF

Airports :

Pontianak, Indonesia

Supadio International Airport

latitude: 00-09S, longitude: 109-24E, elevation: 3 m

Current weather observation

The report was made 5 hours and 39 minutes ago, at 16:00 UTC
Wind 3 kt from the Southwest
Temperature 23°C
Humidity 94%
Pressure 1012 hPa
Visibility: 6000 m
Broken clouds at a height of 1200 ft

METAR: WIOO 171600Z 23003KT 6000 BKN012 23/22 Q1012 NOSIG

Time: 04:39 (21:39 UTC)


TAF: missing

Weather observations and forecasts of more than 4000 airports (METAR and TAF reports).

The available stations are represented by yellow and red dots on the map.

Hover mouse over dot to see the name of the station.

Then click to see weather observations and forecasts.

To change the map : click on the green buttons with a black cross to zoom in, on the green button with a dash to zoom out, or on the green arrows for adjacent maps.


METAR-TAF: